[Date Prev][Date Next][Thread Prev][Thread Next] - [Date Index][Thread Index][Author Index]

2 Line ISS Keps 11-10



ISS
1 25544U 98067A   01314.19092060  .00064670  00000-0  77311-3 0  7089
2 25544  51.6406  74.4567 0009306 312.9875 107.4873 15.60336738169862


----
Via the sarex mailing list at AMSAT.ORG courtesy of AMSAT-NA.
To unsubscribe, send "unsubscribe sarex" to Majordomo@amsat.org



AMSAT Top AMSAT Home